Regional Weather Roundup
Issued by NWS Upton, NY

Current Version | Previous Version | Graphics & Text | Print | Product List | Glossary Off
Versions: 1 2 3 4 5 6 7 8 9 10 11 12 13 14 15 16 17 18 19 20 21 22 23 24 25 26 27

000
ASUS41 KOKX 152008
RWROKX

REGIONAL WEATHER ROUNDUP
NATIONAL WEATHER SERVICE NEW YORK NY
300 PM EST SUN JAN 15 2017

NOTE: "FAIR" INDICATES FEW OR NO CLOUDS BELOW 12,000 FEET WITH NO
SIGNIFICANT WEATHER AND/OR OBSTRUCTIONS TO VISIBILITY.

NYZ071-072-176-178-NJZ106-104-152100-
NEW YORK CITY METRO AREA

CITY           SKY/WX    TMP DP  RH WIND       PRES   REMARKS
Central Park   SUNNY     38  20  48 W7        30.34S WCI  33
Wall St Helipt CLEAR     42  22  44 W7        30.34R
Bronx Bot Gard NOT AVBL
LaGuardia APRT MOSUNNY   40  22  48 NW10      30.32S WCI  33
Kennedy INTL   PTSUNNY   41  20  43 NW6       30.34R
Breezy Point     N/A     37 N/A N/A NW7         N/A  WCI  32
Newark/Liberty PTSUNNY   41  21  44 NW8G21    30.33S
Teterboro      SUNNY     40  23  50 NW9       30.32S WCI  34
$$

NYZ177-179-078>081-152100-
LONG ISLAND NEW YORK

CITY           SKY/WX    TMP DP  RH WIND       PRES   REMARKS
Jones Beach      N/A     37 N/A N/A N8          N/A  WCI  31
Matinecock PT  NOT AVBL
Farmingdale    SUNNY     39  21  48 VRB6      30.32S WCI  35
MacArthur/ISP  MOSUNNY   38  21  50 NW12      30.31S WCI  30
Shirley        SUNNY     38  22  52 MISG      30.31S
Westhampton    SUNNY     39  20  46 NW7       30.32R WCI  34
Southampton    NOT AVBL
Bridgehampton  NOT AVBL
East Hampton     N/A     37  19  49 NW6       30.30S WCI  32
Montauk          N/A     39  18  42 NW7       30.31R WCI  34
$$

NYZ052-065-067-152100-
HUDSON VALLEY

CITY           SKY/WX    TMP DP  RH WIND       PRES   REMARKS
White Plains   SUNNY     38  20  48 NW10      30.29S WCI  31
Newburgh       NOT AVBL
Montgomery     SUNNY     39  18  42 NW9       30.29S WCI  33
Poughkeepsie   SUNNY     38  18  44 SW6       30.30S WCI  33
Albany         MOSUNNY   35  14  42 W10       30.33R WCI  27
$$

NJZ001-105-106-008-010-013-015-019>022-104-152100-
NEW JERSEY

CITY           SKY/WX    TMP DP  RH WIND       PRES   REMARKS
Newark/Liberty PTSUNNY   41  21  44 NW8G21    30.33S
Teterboro      SUNNY     40  23  50 NW9       30.32S WCI  34
Caldwell       SUNNY     38  19  46 NW8       30.34R WCI  32
Somerville     SUNNY     39  20  46 NW10      30.32F WCI  32
Linden           N/A     39  21  47 N7        30.34S WCI  34
Sussex         SUNNY     35  20  54 W7        30.32S WCI  29
Andover          N/A     36  19  50 VRB6      30.32R WCI  31
Trenton        SUNNY     37  21  52 NW9       30.34S WCI  30
Millville      SUNNY     42  25  50 NW8       30.34S
Atlantic City  SUNNY     43  23  45 N7        30.34R
Wrightstown    SUNNY     38  23  54 NW8       30.32S WCI  32
Toms River     SUNNY     38  22  52 N8        30.34S WCI  32
Belmar         SUNNY     39  22  50 NW10      30.33S WCI  32
$$

PAZ047>061-062-071-152100-
EASTERN PENNSYLVANIA

CITY           SKY/WX    TMP DP  RH WIND       PRES   REMARKS
Philadelphia   PTSUNNY   41  21  44 NW10G17   30.35S
Allentown      SUNNY     36  20  52 NW7       30.35S WCI  30
Scranton       CLOUDY    31  20  63 NW9       30.34S WCI  23
$$

CTZ002-004>006-009-010-012-RIZ004-006-007-MAZ004-011-015-152100-
SOUTHERN NEW ENGLAND
 IN CT

CITY           SKY/WX    TMP DP  RH WIND       PRES   REMARKS
Bradley INTL   SUNNY     39  14  36 N6        30.29R WCI  35
Hartford       SUNNY     39  14  36 N10       30.30R WCI  32
Danbury        SUNNY     37  18  46 VRB5      30.31R WCI  33
Wtrbury/Oxford SUNNY     36  16  44 N14       30.29R WCI  27
Bridgeport     SUNNY     42  18  37 NW7       30.31R
Meriden        SUNNY     41  13  31 NW5       30.30R
New Haven      MOSUNNY   39  17  41 NW5       30.30R
Chester          N/A     37  14  38 VRB6      30.28R WCI  33
Groton         SUNNY     40  16  37 NW12      30.29R WCI  33
Wilimantic     SUNNY     40  16  37 N12       30.30R WCI  33

 IN RI

CITY           SKY/WX    TMP DP  RH WIND       PRES   REMARKS
Providence     MOSUNNY   39  13  34 N10       30.29R WCI  32
Block Island   NOT AVBL
Westerly       SUNNY     41  13  31 VRB6      30.30R
 IN MA

CITY           SKY/WX    TMP DP  RH WIND       PRES   REMARKS
Boston         MOSUNNY   36  13  38 NW10      30.29R WCI  28
Worcester      SUNNY     33   9  36 VRB5      30.24R WCI  29
Westfield      SUNNY     37  15  40 NW8       30.29R WCI  31
Provincetown   SUNNY     35  16  45 NW15      30.29R WCI  25
Nantucket      SUNNY     35  19  52 N17       30.28R WCI  25
$$

ANZ330-335-338-340-345-350-353-355-152100-
COASTAL MARINE OBSERVATIONS


STATION/POSITION TIME  SKY/WX   TEMP    WIND        PRES    VSBY  WAVE
                                AIR SEA DIR/SP/G                  HT/PER
                 (UTC)          (F)     (DEG/KT/KT) (MB)    (MI)  (FT/S)
NY HARB ENTRANCE 1950            38 44  310/ 10/ 14 1027.1          2/11
20 S FIRE ISLAND 1950            36 45  330/ 10/ 12 1026.9          2/11
GREAT SOUTH BAY  NOT AVBL
23 SSW MONTAUK P 1850            36 47  320/ 12/ 16 1026.4          3/ 3
15 E BARNEGAT LI 1930               45                N/A           2/11
HUDSON CANYON    1850            40 53              1026.3          4/ 5
KINGS POINT      1942            38 38              1026.6
EXECUTION ROCKS  1945            45     310/  6/  8   N/A
CENTRAL LI SOUND 1930            38     270/  8/ 12   N/A           1/ 3
EASTERN LI SOUND NOT AVBL
ROBBINS REEF     1948            38     310/ 10/ 13 1027.2
$$


>>>>>>>>>>>>>>>>>>>>>>>>>>>> KEY <<<<<<<<<<<<<<<<<<<<<<<<<<<
>                                                          <
>     SKY/WX - Sky Condition/Present Weather               <
>     TMP    - Temperature in Fahrenheit                   <
>     DP     - Dew Point in Fahrenheit                     <
>     RH     - Relative Humidity in Percent                <
>     WIND   - Direction (from) and Speed in MPH           <
>     PRES   - Mean Sea Level Pressure (inches of Hg)      <
>     WCI    - Wind Chill Index                            <
>     VSB    - VISIBILITY IN MILES                         <
>     HX     - HEAT INDEX                                  <
>     TC     - TEMPERATURE IN CELSIUS                      <
>     VRB    - VARIABLE WIND DIRECTION                     <
>                                                          <
>>>>>>>>>>>>>>>>>>>>>>>>>>>> KEY <<<<<<<<<<<<<<<<<<<<<<<<<<<




USA.gov is the U.S. government's official web portal to all federal, state and local government web resources and services.